Location: Lane
(33.5226°N, 79.8788°W)
Time: 12:13:38
(UTC+00:00)

Explorer 7 - Pass Details

Date: 03 October 2022
Orbit: 481 x 665 km, 50.3° (Epoch: 26 November)

Event Time Altitude Azimuth Distance (km) Brightness Sun altitude
Rises 17:57:37 0° 298° (WNW) 2,996 10.5 50.6°
Reaches altitude 10° 18:02:00 10° 335° (NNW) 2,062 9.6 50.2°
Maximum altitude 18:03:12 11° 350° (N) 1,997 9.5 50.2°
Drops below altitude 10° 18:04:25 10° 5° (N) 2,044 9.5 50.1°
Sets 18:08:41 0° 42° (NE) 2,910 10.1 49.7°
